• In Hungary
  • List of Countries
  • For 7 days
  • Water Temperature
  • Satellite Maps
  • Weather Map
  • News
  • Weather Widgets
  • user-avatar
    Login

    Hourly Weather Goluzino

    Today, 18 August, Saturday

    Time Temperature Precipitation Wind Pressure Humidity
    00:00 +13°C° 0 mm 1 mps 757 mmHg 82%
    01:00 +12°C° 0 mm 1 mps 758 mmHg 83%
    02:00 +12°C° 0 mm 1 mps 758 mmHg 85%
    03:00 +12°C° 0 mm 1 mps 758 mmHg 85%
    04:00 +12°C° 0 mm 1 mps 758 mmHg 85%
    05:00 +12°C° 0 mm 1 mps 758 mmHg 85%
    06:00 +15°C° 0 mm 1 mps 758 mmHg 77%
    07:00 +18°C° 0 mm 1 mps 758 mmHg 69%
    08:00 +20°C° 0 mm 1 mps 758 mmHg 61%
    09:00 +21°C° 0 mm 1 mps 758 mmHg 57%
    10:00 +23°C° 0 mm 2 mps 758 mmHg 52%
    11:00 +24°C° 0 mm 2 mps 757 mmHg 47%
    12:00 +25°C° 0 mm 2 mps 757 mmHg 45%
    13:00 +25°C° 0 mm 2 mps 757 mmHg 44%
    14:00 +26°C° 0 mm 2 mps 757 mmHg 42%
    15:00 +25°C° 0 mm 2 mps 756 mmHg 46%
    16:00 +25°C° 0 mm 1 mps 756 mmHg 50%
    17:00 +25°C° 0 mm 1 mps 756 mmHg 54%
    18:00 +22°C° 0 mm 1 mps 756 mmHg 60%
    19:00 +20°C° 0 mm 1 mps 756 mmHg 66%
    20:00 +18°C° 0 mm 1 mps 756 mmHg 72%
    21:00 +16°C° 0 mm 1 mps 756 mmHg 74%
    22:00 +16°C° 0 mm 1 mps 756 mmHg 77%
    23:00 +15°C° 0 mm 2 mps 756 mmHg 79%

    Tomorrow, 19 August, Sunday

    Time Temperature Precipitation Wind Pressure Humidity
    00:00 +15°C° 0 mm 2 mps 756 mmHg 80%
    01:00 +14°C° 0 mm 2 mps 756 mmHg 82%
    02:00 +14°C° 0 mm 2 mps 755 mmHg 84%
    03:00 +14°C° 0 mm 2 mps 755 mmHg 86%
    04:00 +14°C° 0 mm 2 mps 755 mmHg 87%
    05:00 +14°C° 0 mm 2 mps 755 mmHg 89%
    06:00 +16°C° 0 mm 2 mps 755 mmHg 81%
    07:00 +18°C° 0 mm 3 mps 755 mmHg 74%
    08:00 +21°C° 0 mm 3 mps 755 mmHg 67%
    09:00 +22°C° 0 mm 4 mps 754 mmHg 62%
    10:00 +25°C° 0 mm 4 mps 754 mmHg 57%
    11:00 +26°C° 0 mm 4 mps 754 mmHg 51%
    12:00 +27°C° 0 mm 4 mps 753 mmHg 50%
    13:00 +27°C° 0 mm 5 mps 753 mmHg 49%
    14:00 +27°C° 0 mm 5 mps 752 mmHg 48%
    15:00 +27°C° 0.1 mm 4 mps 752 mmHg 53%
    16:00 +26°C° 0.1 mm 4 mps 751 mmHg 59%
    17:00 +25°C° 0.1 mm 4 mps 751 mmHg 65%
    18:00 +22°C° 0.3 mm 3 mps 751 mmHg 72%
    19:00 +21°C° 0.3 mm 3 mps 750 mmHg 79%
    20:00 +19°C° 0.3 mm 3 mps 750 mmHg 86%
    21:00 +19°C° 0.3 mm 3 mps 750 mmHg 88%
    22:00 +18°C° 0.3 mm 3 mps 750 mmHg 91%
    23:00 +18°C° 0.3 mm 2 mps 750 mmHg 94%

    Day after tomorrow, 20 August, Monday

    Time Temperature Precipitation Wind Pressure Humidity
    00:00 +18°C° 0 mm 2 mps 750 mmHg 95%
    01:00 +17°C° 0 mm 2 mps 750 mmHg 96%
    02:00 +17°C° 0 mm 2 mps 750 mmHg 98%
    03:00 +17°C° 0 mm 2 mps 750 mmHg 97%
    04:00 +18°C° 0 mm 1 mps 750 mmHg 96%
    05:00 +18°C° 0 mm 1 mps 750 mmHg 96%
    06:00 +19°C° 0 mm 1 mps 750 mmHg 90%
    07:00 +20°C° 0 mm 1 mps 750 mmHg 84%
    08:00 +20°C° 0 mm 2 mps 750 mmHg 78%
    09:00 +21°C° 0.1 mm 2 mps 750 mmHg 74%
    10:00 +23°C° 0.1 mm 2 mps 750 mmHg 70%
    11:00 +22°C° 0.1 mm 3 mps 750 mmHg 66%
    12:00 +23°C° 0.4 mm 2 mps 750 mmHg 70%
    13:00 +23°C° 0.4 mm 2 mps 749 mmHg 73%
    14:00 +23°C° 0.4 mm 2 mps 749 mmHg 76%
    15:00 +21°C° 0.4 mm 2 mps 749 mmHg 79%
    16:00 +21°C° 0.4 mm 2 mps 749 mmHg 82%
    17:00 +21°C° 0.4 mm 2 mps 749 mmHg 85%
    18:00 +20°C° 0.3 mm 2 mps 749 mmHg 89%
    19:00 +19°C° 0.3 mm 2 mps 749 mmHg 92%
    20:00 +18°C° 0.3 mm 2 mps 749 mmHg 95%
    21:00 +17°C° 0 mm 2 mps 748 mmHg 96%
    22:00 +17°C° 0 mm 2 mps 748 mmHg 97%
    23:00 +16°C° 0 mm 2 mps 748 mmHg 97%

    21 August, Tuesday

    Time Temperature Precipitation Wind Pressure Humidity
    00:00 +16°C° 0 mm 2 mps 748 mmHg 97%
    01:00 +16°C° 0 mm 2 mps 748 mmHg 98%
    02:00 +16°C° 0 mm 2 mps 747 mmHg 98%
    03:00 +16°C° 0 mm 2 mps 747 mmHg 97%
    04:00 +16°C° 0 mm 2 mps 747 mmHg 97%
    05:00 +16°C° 0 mm 3 mps 746 mmHg 97%
    06:00 +18°C° 0 mm 3 mps 746 mmHg 91%
    07:00 +19°C° 0 mm 4 mps 746 mmHg 86%
    08:00 +21°C° 0 mm 5 mps 746 mmHg 81%
    09:00 +22°C° 0.3 mm 5 mps 745 mmHg 77%
    10:00 +23°C° 0.3 mm 6 mps 744 mmHg 72%
    11:00 +24°C° 0.3 mm 7 mps 744 mmHg 67%
    12:00 +24°C° 0.9 mm 7 mps 743 mmHg 70%
    13:00 +24°C° 0.9 mm 6 mps 743 mmHg 72%
    14:00 +23°C° 0.9 mm 6 mps 742 mmHg 74%
    15:00 +22°C° 2.3 mm 6 mps 742 mmHg 80%
    16:00 +20°C° 2.3 mm 6 mps 742 mmHg 86%
    17:00 +17°C° 2.3 mm 5 mps 742 mmHg 92%
    18:00 +16°C° 0.7 mm 5 mps 742 mmHg 93%
    19:00 +15°C° 0.7 mm 4 mps 742 mmHg 94%
    20:00 +14°C° 0.7 mm 3 mps 743 mmHg 95%
    21:00 +14°C° 0 mm 4 mps 743 mmHg 94%
    22:00 +13°C° 0 mm 4 mps 743 mmHg 93%
    23:00 +12°C° 0 mm 4 mps 744 mmHg 92%

    22 August, Wednesday

    Time Temperature Precipitation Wind Pressure Humidity
    00:00 +11°C° 0 mm 4 mps 744 mmHg 92%
    01:00 +11°C° 0 mm 4 mps 745 mmHg 92%
    02:00 +10°C° 0 mm 4 mps 745 mmHg 91%
    03:00 +10°C° 0 mm 4 mps 745 mmHg 92%
    04:00 +10°C° 0 mm 4 mps 746 mmHg 92%
    05:00 +9°C° 0 mm 5 mps 746 mmHg 92%
    06:00 +10°C° 0 mm 5 mps 746 mmHg 86%
    07:00 +13°C° 0 mm 6 mps 747 mmHg 80%
    08:00 +14°C° 0 mm 6 mps 747 mmHg 75%
    09:00 +15°C° 0 mm 6 mps 748 mmHg 71%
    10:00 +15°C° 0 mm 6 mps 748 mmHg 67%
    11:00 +16°C° 0 mm 6 mps 749 mmHg 64%
    12:00 +17°C° 0 mm 6 mps 749 mmHg 61%
    13:00 +17°C° 0 mm 6 mps 750 mmHg 58%
    14:00 +19°C° 0 mm 5 mps 750 mmHg 55%
    15:00 +17°C° 0 mm 5 mps 750 mmHg 57%
    16:00 +18°C° 0 mm 4 mps 751 mmHg 58%
    17:00 +18°C° 0 mm 4 mps 751 mmHg 60%
    18:00 +16°C° 0 mm 3 mps 751 mmHg 65%
    19:00 +13°C° 0 mm 3 mps 752 mmHg 70%
    20:00 +12°C° 0 mm 3 mps 752 mmHg 76%
    21:00 +11°C° 0 mm 3 mps 752 mmHg 78%
    22:00 +10°C° 0 mm 3 mps 753 mmHg 80%
    23:00 +10°C° 0 mm 2 mps 753 mmHg 82%

    23 August, Thursday

    Time Temperature Precipitation Wind Pressure Humidity
    00:00 +9°C° 0 mm 2 mps 753 mmHg 83%
    01:00 +9°C° 0 mm 2 mps 753 mmHg 83%
    02:00 +8°C° 0 mm 2 mps 754 mmHg 84%
    03:00 +8°C° 0 mm 2 mps 754 mmHg 84%
    04:00 +8°C° 0 mm 2 mps 754 mmHg 85%
    05:00 +8°C° 0 mm 2 mps 754 mmHg 85%
    06:00 +11°C° 0 mm 3 mps 753 mmHg 78%
    07:00 +13°C° 0 mm 4 mps 753 mmHg 71%
    08:00 +15°C° 0 mm 4 mps 753 mmHg 64%
    09:00 +16°C° 0 mm 5 mps 752 mmHg 59%
    10:00 +19°C° 0 mm 6 mps 752 mmHg 54%
    11:00 +20°C° 0 mm 6 mps 752 mmHg 50%
    12:00 +21°C° 0 mm 6 mps 751 mmHg 50%
    13:00 +21°C° 0 mm 6 mps 751 mmHg 50%
    14:00 +22°C° 0 mm 6 mps 751 mmHg 51%
    15:00 +21°C° 0.2 mm 5 mps 750 mmHg 58%
    16:00 +19°C° 0.2 mm 4 mps 750 mmHg 66%
    17:00 +18°C° 0.2 mm 3 mps 750 mmHg 73%
    18:00 +18°C° 0.2 mm 3 mps 750 mmHg 77%
    19:00 +17°C° 0.2 mm 3 mps 750 mmHg 81%
    20:00 +17°C° 0.2 mm 4 mps 750 mmHg 85%
    21:00 +17°C° 0.2 mm 4 mps 750 mmHg 86%
    22:00 +17°C° 0.2 mm 4 mps 750 mmHg 88%
    23:00 +17°C° 0.2 mm 4 mps 750 mmHg 90%
    Show more